owner,sensor,date,latitude,longitude,sea_surface_height_above_sea_level,qcFlag 
COMPS,ioos:station:USF.COMPS:ARP:1,2014-01-01T00:00:00Z,28.4330,-82.6670,-0.462,1111122 
COMPS,ioos:station:USF.COMPS:ARP:1,2014-01-01T00:06:00Z,28.4330,-82.6670,-0.466,1111122 
COMPS,ioos:station:USF.COMPS:ARP:1,2014-01-01T00:12:00Z,28.4330,-82.6670,-0.466,1111122 
COMPS,ioos:station:USF.COMPS:ARP:1,2014-01-01T00:18:00Z,28.4330,-82.6670,-0.467,1111122 
COMPS,ioos:station:USF.COMPS:ARP:1,2014-01-01T00:24:00Z,28.4330,-82.6670,-0.461,1111122 
COMPS,ioos:station:USF.COMPS:ARP:1,2014-01-01T00:30:00Z,28.4330,-82.6670,-0.452,1111122 
COMPS,ioos:station:USF.COMPS:ARP:1,2014-01-01T00:36:00Z,28.4330,-82.6670,-0.447,1111122 
COMPS,ioos:station:USF.COMPS:ARP:1,2014-01-01T00:42:00Z,28.4330,-82.6670,-0.436,1111122 
COMPS,ioos:station:USF.COMPS:ARP:1,2014-01-01T00:48:00Z,28.4330,-82.6670,-0.423,1111122 
COMPS,ioos:station:USF.COMPS:ARP:1,2014-01-01T00:54:00Z,28.4330,-82.6670,-0.409,1111122 
COMPS,ioos:station:USF.COMPS:ARP:1,2014-01-01T01:00:00Z,28.4330,-82.6670,-0.397,1111122 
COMPS,ioos:station:USF.COMPS:ARP:1,2014-01-01T01:06:00Z,28.4330,-82.6670,-0.381,1111122 
COMPS,ioos:station:USF.COMPS:ARP:1,2014-01-01T01:12:00Z,28.4330,-82.6670,-0.365,1111122 
COMPS,ioos:station:USF.COMPS:ARP:1,2014-01-01T01:18:00Z,28.4330,-82.6670,-0.348,1111122 
COMPS,ioos:station:USF.COMPS:ARP:1,2014-01-01T01:24:00Z,28.4330,-82.6670,-0.33,1111122 
COMPS,ioos:station:USF.COMPS:ARP:1,2014-01-01T01:30:00Z,28.4330,-82.6670,-0.311,1111122 
COMPS,ioos:station:USF.COMPS:ARP:1,2014-01-01T01:36:00Z,28.4330,-82.6670,-0.291,1111122 
COMPS,ioos:station:USF.COMPS:ARP:1,2014-01-01T01:42:00Z,28.4330,-82.6670,-0.269,1111122 
COMPS,ioos:station:USF.COMPS:ARP:1,2014-01-01T01:48:00Z,28.4330,-82.6670,-0.247,1111122 
COMPS,ioos:station:USF.COMPS:ARP:1,2014-01-01T02:00:00Z,28.4330,-82.6670,-0.201,1111122 
COMPS,ioos:station:USF.COMPS:ARP:1,2014-01-01T02:06:00Z,28.4330,-82.6670,-0.176,1111122 
COMPS,ioos:station:USF.COMPS:ARP:1,2014-01-01T02:12:00Z,28.4330,-82.6670,-0.149,1111122 
COMPS,ioos:station:USF.COMPS:ARP:1,2014-01-01T02:18:00Z,28.4330,-82.6670,-0.123,1111122 
COMPS,ioos:station:USF.COMPS:ARP:1,2014-01-01T02:24:00Z,28.4330,-82.6670,-0.098,1111122 
COMPS,ioos:station:USF.COMPS:ARP:1,2014-01-01T02:30:00Z,28.4330,-82.6670,-0.07,1111122 
COMPS,ioos:station:USF.COMPS:ARP:1,2014-01-01T02:36:00Z,28.4330,-82.6670,-0.043,1111122 
COMPS,ioos:station:USF.COMPS:ARP:1,2014-01-01T02:42:00Z,28.4330,-82.6670,-0.018,1111122 
COMPS,ioos:station:USF.COMPS:ARP:1,2014-01-01T02:48:00Z,28.4330,-82.6670,0.009,1111122 
COMPS,ioos:station:USF.COMPS:ARP:1,2014-01-01T02:54:00Z,28.4330,-82.6670,0.033,1111122 
COMPS,ioos:station:USF.COMPS:ARP:1,2014-01-01T03:00:00Z,28.4330,-82.6670,0.062,1111122 
COMPS,ioos:station:USF.COMPS:ARP:1,2014-01-01T03:06:00Z,28.4330,-82.6670,0.084,1111122 
COMPS,ioos:station:USF.COMPS:ARP:1,2014-01-01T03:12:00Z,28.4330,-82.6670,0.108,1111122 
COMPS,ioos:station:USF.COMPS:ARP:1,2014-01-01T03:18:00Z,28.4330,-82.6670,0.129,1111122 
COMPS,ioos:station:USF.COMPS:ARP:1,2014-01-01T03:24:00Z,28.4330,-82.6670,0.152,1111122 
COMPS,ioos:station:USF.COMPS:ARP:1,2014-01-01T03:30:00Z,28.4330,-82.6670,0.176,1111122 
COMPS,ioos:station:USF.COMPS:ARP:1,2014-01-01T03:36:00Z,28.4330,-82.6670,0.192,1111122 
COMPS,ioos:station:USF.COMPS:ARP:1,2014-01-01T03:42:00Z,28.4330,-82.6670,0.216,1111122 
COMPS,ioos:station:USF.COMPS:ARP:1,2014-01-01T03:48:00Z,28.4330,-82.6670,0.234,1111122 
COMPS,ioos:station:USF.COMPS:ARP:1,2014-01-01T03:54:00Z,28.4330,-82.6670,0.251,1111122 
COMPS,ioos:station:USF.COMPS:ARP:1,2014-01-01T04:00:00Z,28.4330,-82.6670,0.266,1111122 
COMPS,ioos:station:USF.COMPS:ARP:1,2014-01-01T04:06:00Z,28.4330,-82.6670,0.282,1111122 
COMPS,ioos:station:USF.COMPS:ARP:1,2014-01-01T04:12:00Z,28.4330,-82.6670,0.293,1111122 
COMPS,ioos:station:USF.COMPS:ARP:1,2014-01-01T04:18:00Z,28.4330,-82.6670,0.301,1111122 
COMPS,ioos:station:USF.COMPS:ARP:1,2014-01-01T04:24:00Z,28.4330,-82.6670,0.31,1111122 
COMPS,ioos:station:USF.COMPS:ARP:1,2014-01-01T04:30:00Z,28.4330,-82.6670,0.32,1111122 
COMPS,ioos:station:USF.COMPS:ARP:1,2014-01-01T04:36:00Z,28.4330,-82.6670,0.324,1111122 
COMPS,ioos:station:USF.COMPS:ARP:1,2014-01-01T04:42:00Z,28.4330,-82.6670,0.329,1111122 
COMPS,ioos:station:USF.COMPS:ARP:1,2014-01-01T04:48:00Z,28.4330,-82.6670,0.343,1111122 
COMPS,ioos:station:USF.COMPS:ARP:1,2014-01-01T04:54:00Z,28.4330,-82.6670,0.342,1111122 
COMPS,ioos:station:USF.COMPS:ARP:1,2014-01-01T05:00:00Z,28.4330,-82.6670,0.347,1111122 
COMPS,ioos:station:USF.COMPS:ARP:1,2014-01-01T05:06:00Z,28.4330,-82.6670,0.348,1111122 
COMPS,ioos:station:USF.COMPS:ARP:1,2014-01-01T05:12:00Z,28.4330,-82.6670,0.346,1111122 
COMPS,ioos:station:USF.COMPS:ARP:1,2014-01-01T05:18:00Z,28.4330,-82.6670,0.345,1111122 
COMPS,ioos:station:USF.COMPS:ARP:1,2014-01-01T05:24:00Z,28.4330,-82.6670,0.341,1111122 
COMPS,ioos:station:USF.COMPS:ARP:1,2014-01-01T05:30:00Z,28.4330,-82.6670,0.33,1111122 
COMPS,ioos:station:USF.COMPS:ARP:1,2014-01-01T05:36:00Z,28.4330,-82.6670,0.331,1111122 
COMPS,ioos:station:USF.COMPS:ARP:1,2014-01-01T05:42:00Z,28.4330,-82.6670,0.32,1111122 
COMPS,ioos:station:USF.COMPS:ARP:1,2014-01-01T05:48:00Z,28.4330,-82.6670,0.317,1111122 
COMPS,ioos:station:USF.COMPS:ARP:1,2014-01-01T05:54:00Z,28.4330,-82.6670,0.294,1111122 
COMPS,ioos:station:USF.COMPS:ARP:1,2014-01-01T06:00:00Z,28.4330,-82.6670,0.286,1111122 
COMPS,ioos:station:USF.COMPS:ARP:1,2014-01-01T06:06:00Z,28.4330,-82.6670,0.268,1111122 
COMPS,ioos:station:USF.COMPS:ARP:1,2014-01-01T06:12:00Z,28.4330,-82.6670,0.25,1111122 
COMPS,ioos:station:USF.COMPS:ARP:1,2014-01-01T06:18:00Z,28.4330,-82.6670,0.239,1111122 
COMPS,ioos:station:USF.COMPS:ARP:1,2014-01-01T06:24:00Z,28.4330,-82.6670,0.229,1111122 
COMPS,ioos:station:USF.COMPS:ARP:1,2014-01-01T06:30:00Z,28.4330,-82.6670,0.206,1111122 
COMPS,ioos:station:USF.COMPS:ARP:1,2014-01-01T06:36:00Z,28.4330,-82.6670,0.191,1111122 
COMPS,ioos:station:USF.COMPS:ARP:1,2014-01-01T06:42:00Z,28.4330,-82.6670,0.185,1111122 
COMPS,ioos:station:USF.COMPS:ARP:1,2014-01-01T06:48:00Z,28.4330,-82.6670,0.163,1111122 
COMPS,ioos:station:USF.COMPS:ARP:1,2014-01-01T06:54:00Z,28.4330,-82.6670,0.139,1111122 
COMPS,ioos:station:USF.COMPS:ARP:1,2014-01-01T07:00:00Z,28.4330,-82.6670,0.12,1111122 
COMPS,ioos:station:USF.COMPS:ARP:1,2014-01-01T07:06:00Z,28.4330,-82.6670,0.099,1111122 
COMPS,ioos:station:USF.COMPS:ARP:1,2014-01-01T07:12:00Z,28.4330,-82.6670,0.081,1111122 
COMPS,ioos:station:USF.COMPS:ARP:1,2014-01-01T07:18:00Z,28.4330,-82.6670,0.063,1111122 
COMPS,ioos:station:USF.COMPS:ARP:1,2014-01-01T07:24:00Z,28.4330,-82.6670,0.046,1111122 
COMPS,ioos:station:USF.COMPS:ARP:1,2014-01-01T07:30:00Z,28.4330,-82.6670,0.026,1111122 
COMPS,ioos:station:USF.COMPS:ARP:1,2014-01-01T07:36:00Z,28.4330,-82.6670,0.009,1111122 
COMPS,ioos:station:USF.COMPS:ARP:1,2014-01-01T07:42:00Z,28.4330,-82.6670,-0.003,1111122 
COMPS,ioos:station:USF.COMPS:ARP:1,2014-01-01T07:48:00Z,28.4330,-82.6670,-0.016,1111122 
COMPS,ioos:station:USF.COMPS:ARP:1,2014-01-01T07:54:00Z,28.4330,-82.6670,-0.032,1111122 
COMPS,ioos:station:USF.COMPS:ARP:1,2014-01-01T08:00:00Z,28.4330,-82.6670,-0.045,1111122 
COMPS,ioos:station:USF.COMPS:ARP:1,2014-01-01T08:06:00Z,28.4330,-82.6670,-0.06,1111122 
COMPS,ioos:station:USF.COMPS:ARP:1,2014-01-01T08:12:00Z,28.4330,-82.6670,-0.077,1111122 
COMPS,ioos:station:USF.COMPS:ARP:1,2014-01-01T08:18:00Z,28.4330,-82.6670,-0.092,1111122 
COMPS,ioos:station:USF.COMPS:ARP:1,2014-01-01T08:24:00Z,28.4330,-82.6670,-0.108,1111122 
COMPS,ioos:station:USF.COMPS:ARP:1,2014-01-01T08:30:00Z,28.4330,-82.6670,-0.124,1111122 
COMPS,ioos:station:USF.COMPS:ARP:1,2014-01-01T08:36:00Z,28.4330,-82.6670,-0.139,1111122 
COMPS,ioos:station:USF.COMPS:ARP:1,2014-01-01T08:42:00Z,28.4330,-82.6670,-0.157,1111122 
COMPS,ioos:station:USF.COMPS:ARP:1,2014-01-01T08:48:00Z,28.4330,-82.6670,-0.174,1111122 
COMPS,ioos:station:USF.COMPS:ARP:1,2014-01-01T08:54:00Z,28.4330,-82.6670,-0.191,1111122 
COMPS,ioos:station:USF.COMPS:ARP:1,2014-01-01T09:00:00Z,28.4330,-82.6670,-0.207,1111122 
COMPS,ioos:station:USF.COMPS:ARP:1,2014-01-01T09:06:00Z,28.4330,-82.6670,-0.225,1111122 
COMPS,ioos:station:USF.COMPS:ARP:1,2014-01-01T09:12:00Z,28.4330,-82.6670,-0.241,1111122 
COMPS,ioos:station:USF.COMPS:ARP:1,2014-01-01T09:18:00Z,28.4330,-82.6670,-0.257,1111122 
COMPS,ioos:station:USF.COMPS:ARP:1,2014-01-01T09:24:00Z,28.4330,-82.6670,-0.274,1111122 
COMPS,ioos:station:USF.COMPS:ARP:1,2014-01-01T09:30:00Z,28.4330,-82.6670,-0.29,1111122 
COMPS,ioos:station:USF.COMPS:ARP:1,2014-01-01T09:36:00Z,28.4330,-82.6670,-0.305,1111122 
COMPS,ioos:station:USF.COMPS:ARP:1,2014-01-01T09:42:00Z,28.4330,-82.6670,-0.318,1111122 
COMPS,ioos:station:USF.COMPS:ARP:1,2014-01-01T09:48:00Z,28.4330,-82.6670,-0.333,1111122 
COMPS,ioos:station:USF.COMPS:ARP:1,2014-01-01T09:54:00Z,28.4330,-82.6670,-0.347,1111122 
COMPS,ioos:station:USF.COMPS:ARP:1,2014-01-01T10:00:00Z,28.4330,-82.6670,-0.36,1111122 
COMPS,ioos:station:USF.COMPS:ARP:1,2014-01-01T10:06:00Z,28.4330,-82.6670,-0.372,1111122 
COMPS,ioos:station:USF.COMPS:ARP:1,2014-01-01T10:12:00Z,28.4330,-82.6670,-0.384,1111122 
COMPS,ioos:station:USF.COMPS:ARP:1,2014-01-01T10:18:00Z,28.4330,-82.6670,-0.397,1111122 
COMPS,ioos:station:USF.COMPS:ARP:1,2014-01-01T10:24:00Z,28.4330,-82.6670,-0.409,1111122 
COMPS,ioos:station:USF.COMPS:ARP:1,2014-01-01T10:30:00Z,28.4330,-82.6670,-0.42,1111122 
COMPS,ioos:station:USF.COMPS:ARP:1,2014-01-01T10:36:00Z,28.4330,-82.6670,-0.431,1111122 
COMPS,ioos:station:USF.COMPS:ARP:1,2014-01-01T10:42:00Z,28.4330,-82.6670,-0.442,1111122 
COMPS,ioos:station:USF.COMPS:ARP:1,2014-01-01T10:48:00Z,28.4330,-82.6670,-0.453,1111122 
COMPS,ioos:station:USF.COMPS:ARP:1,2014-01-01T10:54:00Z,28.4330,-82.6670,-0.463,1111122 
COMPS,ioos:station:USF.COMPS:ARP:1,2014-01-01T11:00:00Z,28.4330,-82.6670,-0.474,1111122 
COMPS,ioos:station:USF.COMPS:ARP:1,2014-01-01T11:06:00Z,28.4330,-82.6670,-0.482,1111122 
COMPS,ioos:station:USF.COMPS:ARP:1,2014-01-01T11:12:00Z,28.4330,-82.6670,-0.491,1111122 
COMPS,ioos:station:USF.COMPS:ARP:1,2014-01-01T11:18:00Z,28.4330,-82.6670,-0.501,1111122 
COMPS,ioos:station:USF.COMPS:ARP:1,2014-01-01T11:24:00Z,28.4330,-82.6670,-0.509,1111122 
COMPS,ioos:station:USF.COMPS:ARP:1,2014-01-01T11:30:00Z,28.4330,-82.6670,-0.516,1111122 
COMPS,ioos:station:USF.COMPS:ARP:1,2014-01-01T11:36:00Z,28.4330,-82.6670,-0.523,1111122 
COMPS,ioos:station:USF.COMPS:ARP:1,2014-01-01T11:42:00Z,28.4330,-82.6670,-0.53,1111122 
COMPS,ioos:station:USF.COMPS:ARP:1,2014-01-01T11:48:00Z,28.4330,-82.6670,-0.537,1111122 
COMPS,ioos:station:USF.COMPS:ARP:1,2014-01-01T11:54:00Z,28.4330,-82.6670,-0.543,1111122 
COMPS,ioos:station:USF.COMPS:ARP:1,2014-01-01T12:00:00Z,28.4330,-82.6670,-0.55,1111122 
COMPS,ioos:station:USF.COMPS:ARP:1,2014-01-01T12:06:00Z,28.4330,-82.6670,-0.556,1111122 
COMPS,ioos:station:USF.COMPS:ARP:1,2014-01-01T12:12:00Z,28.4330,-82.6670,-0.562,1111122 
COMPS,ioos:station:USF.COMPS:ARP:1,2014-01-01T12:18:00Z,28.4330,-82.6670,-0.568,1111122 
COMPS,ioos:station:USF.COMPS:ARP:1,2014-01-01T12:24:00Z,28.4330,-82.6670,-0.573,1111122 
COMPS,ioos:station:USF.COMPS:ARP:1,2014-01-01T12:30:00Z,28.4330,-82.6670,-0.578,1111122 
COMPS,ioos:station:USF.COMPS:ARP:1,2014-01-01T12:36:00Z,28.4330,-82.6670,-0.582,1111122 
COMPS,ioos:station:USF.COMPS:ARP:1,2014-01-01T12:42:00Z,28.4330,-82.6670,-0.587,1111122 
COMPS,ioos:station:USF.COMPS:ARP:1,2014-01-01T12:48:00Z,28.4330,-82.6670,-0.591,1111122 
COMPS,ioos:station:USF.COMPS:ARP:1,2014-01-01T12:54:00Z,28.4330,-82.6670,-0.596,1111122 
COMPS,ioos:station:USF.COMPS:ARP:1,2014-01-01T13:00:00Z,28.4330,-82.6670,-0.6,1111122 
COMPS,ioos:station:USF.COMPS:ARP:1,2014-01-01T13:06:00Z,28.4330,-82.6670,-0.604,1111122 
COMPS,ioos:station:USF.COMPS:ARP:1,2014-01-01T13:12:00Z,28.4330,-82.6670,-0.608,1111122 
COMPS,ioos:station:USF.COMPS:ARP:1,2014-01-01T13:18:00Z,28.4330,-82.6670,-0.611,1111122 
COMPS,ioos:station:USF.COMPS:ARP:1,2014-01-01T13:24:00Z,28.4330,-82.6670,-0.614,1111122 
COMPS,ioos:station:USF.COMPS:ARP:1,2014-01-01T13:30:00Z,28.4330,-82.6670,-0.617,1111122 
COMPS,ioos:station:USF.COMPS:ARP:1,2014-01-01T13:36:00Z,28.4330,-82.6670,-0.621,1111122 
COMPS,ioos:station:USF.COMPS:ARP:1,2014-01-01T13:42:00Z,28.4330,-82.6670,-0.624,1111122 
COMPS,ioos:station:USF.COMPS:ARP:1,2014-01-01T13:48:00Z,28.4330,-82.6670,-0.627,1111122 
COMPS,ioos:station:USF.COMPS:ARP:1,2014-01-01T13:54:00Z,28.4330,-82.6670,-0.629,1111122 
COMPS,ioos:station:USF.COMPS:ARP:1,2014-01-01T14:00:00Z,28.4330,-82.6670,-0.632,1111122 
COMPS,ioos:station:USF.COMPS:ARP:1,2014-01-01T14:06:00Z,28.4330,-82.6670,-0.635,1111122 
COMPS,ioos:station:USF.COMPS:ARP:1,2014-01-01T14:12:00Z,28.4330,-82.6670,-0.638,1111122 
COMPS,ioos:station:USF.COMPS:ARP:1,2014-01-01T14:18:00Z,28.4330,-82.6670,-0.641,1111122 
COMPS,ioos:station:USF.COMPS:ARP:1,2014-01-01T14:24:00Z,28.4330,-82.6670,-0.643,1111122 
COMPS,ioos:station:USF.COMPS:ARP:1,2014-01-01T14:30:00Z,28.4330,-82.6670,-0.646,1111122 
COMPS,ioos:station:USF.COMPS:ARP:1,2014-01-01T14:36:00Z,28.4330,-82.6670,-0.648,1111122 
COMPS,ioos:station:USF.COMPS:ARP:1,2014-01-01T14:42:00Z,28.4330,-82.6670,-0.65,1111122 
COMPS,ioos:station:USF.COMPS:ARP:1,2014-01-01T14:48:00Z,28.4330,-82.6670,-0.652,1111122 
COMPS,ioos:station:USF.COMPS:ARP:1,2014-01-01T14:54:00Z,28.4330,-82.6670,-0.654,1111122 
COMPS,ioos:station:USF.COMPS:ARP:1,2014-01-01T15:00:00Z,28.4330,-82.6670,-0.656,1111122 
COMPS,ioos:station:USF.COMPS:ARP:1,2014-01-01T15:06:00Z,28.4330,-82.6670,-0.657,1111122 
COMPS,ioos:station:USF.COMPS:ARP:1,2014-01-01T15:12:00Z,28.4330,-82.6670,-0.659,1111122 
COMPS,ioos:station:USF.COMPS:ARP:1,2014-01-01T15:18:00Z,28.4330,-82.6670,-0.661,1111122 
COMPS,ioos:station:USF.COMPS:ARP:1,2014-01-01T15:24:00Z,28.4330,-82.6670,-0.663,1111122 
COMPS,ioos:station:USF.COMPS:ARP:1,2014-01-01T15:30:00Z,28.4330,-82.6670,-0.665,1111122 
COMPS,ioos:station:USF.COMPS:ARP:1,2014-01-01T15:36:00Z,28.4330,-82.6670,-0.666,1111122 
COMPS,ioos:station:USF.COMPS:ARP:1,2014-01-01T15:42:00Z,28.4330,-82.6670,-0.669,1111122 
COMPS,ioos:station:USF.COMPS:ARP:1,2014-01-01T15:48:00Z,28.4330,-82.6670,-0.671,1111122 
COMPS,ioos:station:USF.COMPS:ARP:1,2014-01-01T15:54:00Z,28.4330,-82.6670,-0.673,1111122 
COMPS,ioos:station:USF.COMPS:ARP:1,2014-01-01T16:00:00Z,28.4330,-82.6670,-0.674,1111122 
COMPS,ioos:station:USF.COMPS:ARP:1,2014-01-01T16:06:00Z,28.4330,-82.6670,-0.676,1111122 
COMPS,ioos:station:USF.COMPS:ARP:1,2014-01-01T16:12:00Z,28.4330,-82.6670,-0.677,1111122 
COMPS,ioos:station:USF.COMPS:ARP:1,2014-01-01T16:18:00Z,28.4330,-82.6670,-0.677,1111122 
COMPS,ioos:station:USF.COMPS:ARP:1,2014-01-01T16:24:00Z,28.4330,-82.6670,-0.677,1111122 
COMPS,ioos:station:USF.COMPS:ARP:1,2014-01-01T16:30:00Z,28.4330,-82.6670,-0.673,1111122 
COMPS,ioos:station:USF.COMPS:ARP:1,2014-01-01T16:36:00Z,28.4330,-82.6670,-0.668,1111122 
COMPS,ioos:station:USF.COMPS:ARP:1,2014-01-01T16:42:00Z,28.4330,-82.6670,-0.661,1111122 
COMPS,ioos:station:USF.COMPS:ARP:1,2014-01-01T16:48:00Z,28.4330,-82.6670,-0.656,1111122 
COMPS,ioos:station:USF.COMPS:ARP:1,2014-01-01T16:54:00Z,28.4330,-82.6670,-0.649,1111122 
COMPS,ioos:station:USF.COMPS:ARP:1,2014-01-01T17:00:00Z,28.4330,-82.6670,-0.635,1111122 
COMPS,ioos:station:USF.COMPS:ARP:1,2014-01-01T17:06:00Z,28.4330,-82.6670,-0.615,1111122 
COMPS,ioos:station:USF.COMPS:ARP:1,2014-01-01T17:12:00Z,28.4330,-82.6670,-0.59,1111122 
COMPS,ioos:station:USF.COMPS:ARP:1,2014-01-01T17:18:00Z,28.4330,-82.6670,-0.557,1111122 
COMPS,ioos:station:USF.COMPS:ARP:1,2014-01-01T17:24:00Z,28.4330,-82.6670,-0.524,1111122 
COMPS,ioos:station:USF.COMPS:ARP:1,2014-01-01T17:30:00Z,28.4330,-82.6670,-0.488,1111122 
COMPS,ioos:station:USF.COMPS:ARP:1,2014-01-01T17:36:00Z,28.4330,-82.6670,-0.455,1111122 
COMPS,ioos:station:USF.COMPS:ARP:1,2014-01-01T17:42:00Z,28.4330,-82.6670,-0.418,1111122 
COMPS,ioos:station:USF.COMPS:ARP:1,2014-01-01T17:48:00Z,28.4330,-82.6670,-0.378,1111122 
COMPS,ioos:station:USF.COMPS:ARP:1,2014-01-01T17:54:00Z,28.4330,-82.6670,-0.335,1111122 
COMPS,ioos:station:USF.COMPS:ARP:1,2014-01-01T18:00:00Z,28.4330,-82.6670,-0.292,1111122 
COMPS,ioos:station:USF.COMPS:ARP:1,2014-01-01T18:06:00Z,28.4330,-82.6670,-0.244,1111122 
COMPS,ioos:station:USF.COMPS:ARP:1,2014-01-01T18:12:00Z,28.4330,-82.6670,-0.197,1111122 
COMPS,ioos:station:USF.COMPS:ARP:1,2014-01-01T18:18:00Z,28.4330,-82.6670,-0.149,1111122 
COMPS,ioos:station:USF.COMPS:ARP:1,2014-01-01T18:24:00Z,28.4330,-82.6670,-0.103,1111122 
COMPS,ioos:station:USF.COMPS:ARP:1,2014-01-01T18:30:00Z,28.4330,-82.6670,-0.059,1111122 
COMPS,ioos:station:USF.COMPS:ARP:1,2014-01-01T18:36:00Z,28.4330,-82.6670,-0.022,1111122 
COMPS,ioos:station:USF.COMPS:ARP:1,2014-01-01T18:42:00Z,28.4330,-82.6670,0.008,1111122 
COMPS,ioos:station:USF.COMPS:ARP:1,2014-01-01T18:48:00Z,28.4330,-82.6670,0.035,1111122 
COMPS,ioos:station:USF.COMPS:ARP:1,2014-01-01T18:54:00Z,28.4330,-82.6670,0.056,1111122 
COMPS,ioos:station:USF.COMPS:ARP:1,2014-01-01T19:00:00Z,28.4330,-82.6670,0.073,1111122 
COMPS,ioos:station:USF.COMPS:ARP:1,2014-01-01T19:06:00Z,28.4330,-82.6670,0.077,1111122 
COMPS,ioos:station:USF.COMPS:ARP:1,2014-01-01T19:12:00Z,28.4330,-82.6670,0.078,1111122 
COMPS,ioos:station:USF.COMPS:ARP:1,2014-01-01T19:18:00Z,28.4330,-82.6670,0.073,1111122 
COMPS,ioos:station:USF.COMPS:ARP:1,2014-01-01T19:24:00Z,28.4330,-82.6670,0.07,1111122 
COMPS,ioos:station:USF.COMPS:ARP:1,2014-01-01T19:30:00Z,28.4330,-82.6670,0.064,1111122 
COMPS,ioos:station:USF.COMPS:ARP:1,2014-01-01T19:36:00Z,28.4330,-82.6670,0.049,1111122 
COMPS,ioos:station:USF.COMPS:ARP:1,2014-01-01T19:42:00Z,28.4330,-82.6670,0.043,1111122 
COMPS,ioos:station:USF.COMPS:ARP:1,2014-01-01T19:48:00Z,28.4330,-82.6670,0.036,1111122 
COMPS,ioos:station:USF.COMPS:ARP:1,2014-01-01T19:54:00Z,28.4330,-82.6670,0.026,1111122 
COMPS,ioos:station:USF.COMPS:ARP:1,2014-01-01T20:00:00Z,28.4330,-82.6670,0.019,1111122 
COMPS,ioos:station:USF.COMPS:ARP:1,2014-01-01T20:06:00Z,28.4330,-82.6670,0.027,1111122 
COMPS,ioos:station:USF.COMPS:ARP:1,2014-01-01T20:12:00Z,28.4330,-82.6670,0.02,1111122 
COMPS,ioos:station:USF.COMPS:ARP:1,2014-01-01T20:18:00Z,28.4330,-82.6670,0.005,1111122 
COMPS,ioos:station:USF.COMPS:ARP:1,2014-01-01T20:24:00Z,28.4330,-82.6670,0.006,1111122 
COMPS,ioos:station:USF.COMPS:ARP:1,2014-01-01T20:30:00Z,28.4330,-82.6670,-0.002,1111122 
COMPS,ioos:station:USF.COMPS:ARP:1,2014-01-01T20:36:00Z,28.4330,-82.6670,-0.01,1111122 
COMPS,ioos:station:USF.COMPS:ARP:1,2014-01-01T20:42:00Z,28.4330,-82.6670,-0.021,1111122 
COMPS,ioos:station:USF.COMPS:ARP:1,2014-01-01T20:48:00Z,28.4330,-82.6670,-0.033,1111122 
COMPS,ioos:station:USF.COMPS:ARP:1,2014-01-01T20:54:00Z,28.4330,-82.6670,-0.046,1111122 
COMPS,ioos:station:USF.COMPS:ARP:1,2014-01-01T21:00:00Z,28.4330,-82.6670,-0.06,1111122 
COMPS,ioos:station:USF.COMPS:ARP:1,2014-01-01T21:06:00Z,28.4330,-82.6670,-0.071,1111122 
COMPS,ioos:station:USF.COMPS:ARP:1,2014-01-01T21:12:00Z,28.4330,-82.6670,-0.081,1111122 
COMPS,ioos:station:USF.COMPS:ARP:1,2014-01-01T21:18:00Z,28.4330,-82.6670,-0.089,1111122 
COMPS,ioos:station:USF.COMPS:ARP:1,2014-01-01T21:24:00Z,28.4330,-82.6670,-0.102,1111122 
COMPS,ioos:station:USF.COMPS:ARP:1,2014-01-01T21:30:00Z,28.4330,-82.6670,-0.113,1111122 
COMPS,ioos:station:USF.COMPS:ARP:1,2014-01-01T21:36:00Z,28.4330,-82.6670,-0.124,1111122 
COMPS,ioos:station:USF.COMPS:ARP:1,2014-01-01T21:42:00Z,28.4330,-82.6670,-0.136,1111122 
COMPS,ioos:station:USF.COMPS:ARP:1,2014-01-01T21:48:00Z,28.4330,-82.6670,-0.148,1111122 
COMPS,ioos:station:USF.COMPS:ARP:1,2014-01-01T21:54:00Z,28.4330,-82.6670,-0.161,1111122 
COMPS,ioos:station:USF.COMPS:ARP:1,2014-01-01T22:00:00Z,28.4330,-82.6670,-0.176,1111122 
COMPS,ioos:station:USF.COMPS:ARP:1,2014-01-01T22:06:00Z,28.4330,-82.6670,-0.19,1111122 
COMPS,ioos:station:USF.COMPS:ARP:1,2014-01-01T22:12:00Z,28.4330,-82.6670,-0.2,1111122 
COMPS,ioos:station:USF.COMPS:ARP:1,2014-01-01T22:18:00Z,28.4330,-82.6670,-0.212,1111122 
COMPS,ioos:station:USF.COMPS:ARP:1,2014-01-01T22:24:00Z,28.4330,-82.6670,-0.224,1111122 
COMPS,ioos:station:USF.COMPS:ARP:1,2014-01-01T22:30:00Z,28.4330,-82.6670,-0.235,1111122 
COMPS,ioos:station:USF.COMPS:ARP:1,2014-01-01T22:36:00Z,28.4330,-82.6670,-0.245,1111122 
COMPS,ioos:station:USF.COMPS:ARP:1,2014-01-01T22:42:00Z,28.4330,-82.6670,-0.256,1111122 
COMPS,ioos:station:USF.COMPS:ARP:1,2014-01-01T22:48:00Z,28.4330,-82.6670,-0.267,1111122 
COMPS,ioos:station:USF.COMPS:ARP:1,2014-01-01T22:54:00Z,28.4330,-82.6670,-0.281,1111122 
COMPS,ioos:station:USF.COMPS:ARP:1,2014-01-01T23:00:00Z,28.4330,-82.6670,-0.292,1111122 
COMPS,ioos:station:USF.COMPS:ARP:1,2014-01-01T23:06:00Z,28.4330,-82.6670,-0.302,1111122 
COMPS,ioos:station:USF.COMPS:ARP:1,2014-01-01T23:12:00Z,28.4330,-82.6670,-0.313,1111122 
COMPS,ioos:station:USF.COMPS:ARP:1,2014-01-01T23:18:00Z,28.4330,-82.6670,-0.324,1111122 
COMPS,ioos:station:USF.COMPS:ARP:1,2014-01-01T23:24:00Z,28.4330,-82.6670,-0.335,1111122 
COMPS,ioos:station:USF.COMPS:ARP:1,2014-01-01T23:30:00Z,28.4330,-82.6670,-0.345,1111122 
COMPS,ioos:station:USF.COMPS:ARP:1,2014-01-01T23:36:00Z,28.4330,-82.6670,-0.356,1111122 
COMPS,ioos:station:USF.COMPS:ARP:1,2014-01-01T23:42:00Z,28.4330,-82.6670,-0.365,1111122 
COMPS,ioos:station:USF.COMPS:ARP:1,2014-01-01T23:48:00Z,28.4330,-82.6670,-0.374,1111122 
COMPS,ioos:station:USF.COMPS:ARP:1,2014-01-01T23:54:00Z,28.4330,-82.6670,-0.383,1111122 
COMPS,ioos:station:USF.COMPS:ARP:1,2014-01-02T00:00:00Z,28.4330,-82.6670,-0.393,1111122 
COMPS,ioos:station:USF.COMPS:ARP:1,2014-01-02T00:06:00Z,28.4330,-82.6670,-0.403,1111122 
COMPS,ioos:station:USF.COMPS:ARP:1,2014-01-02T00:12:00Z,28.4330,-82.6670,-0.411,1111122 
COMPS,ioos:station:USF.COMPS:ARP:1,2014-01-02T00:18:00Z,28.4330,-82.6670,-0.42,1111122 
COMPS,ioos:station:USF.COMPS:ARP:1,2014-01-02T00:24:00Z,28.4330,-82.6670,-0.428,1111122 
COMPS,ioos:station:USF.COMPS:ARP:1,2014-01-02T00:30:00Z,28.4330,-82.6670,-0.436,1111122 
COMPS,ioos:station:USF.COMPS:ARP:1,2014-01-02T00:36:00Z,28.4330,-82.6670,-0.442,1111122 
COMPS,ioos:station:USF.COMPS:ARP:1,2014-01-02T00:42:00Z,28.4330,-82.6670,-0.448,1111122 
COMPS,ioos:station:USF.COMPS:ARP:1,2014-01-02T00:48:00Z,28.4330,-82.6670,-0.454,1111122 
COMPS,ioos:station:USF.COMPS:ARP:1,2014-01-02T00:54:00Z,28.4330,-82.6670,-0.46,1111122 
COMPS,ioos:station:USF.COMPS:ARP:1,2014-01-02T01:00:00Z,28.4330,-82.6670,-0.462,1111122 
COMPS,ioos:station:USF.COMPS:ARP:1,2014-01-02T01:06:00Z,28.4330,-82.6670,-0.461,1111122 
COMPS,ioos:station:USF.COMPS:ARP:1,2014-01-02T01:12:00Z,28.4330,-82.6670,-0.459,1111122 
COMPS,ioos:station:USF.COMPS:ARP:1,2014-01-02T01:18:00Z,28.4330,-82.6670,-0.45,1111122 
COMPS,ioos:station:USF.COMPS:ARP:1,2014-01-02T01:24:00Z,28.4330,-82.6670,-0.444,1111122 
COMPS,ioos:station:USF.COMPS:ARP:1,2014-01-02T01:30:00Z,28.4330,-82.6670,-0.435,1111122 
COMPS,ioos:station:USF.COMPS:ARP:1,2014-01-02T01:36:00Z,28.4330,-82.6670,-0.423,1111122 
COMPS,ioos:station:USF.COMPS:ARP:1,2014-01-02T01:42:00Z,28.4330,-82.6670,-0.41,1111122 
COMPS,ioos:station:USF.COMPS:ARP:1,2014-01-02T01:48:00Z,28.4330,-82.6670,-0.396,1111122 
COMPS,ioos:station:USF.COMPS:ARP:1,2014-01-02T01:54:00Z,28.4330,-82.6670,-0.38,1111122 
COMPS,ioos:station:USF.COMPS:ARP:1,2014-01-02T02:00:00Z,28.4330,-82.6670,-0.362,1111122 
COMPS,ioos:station:USF.COMPS:ARP:1,2014-01-02T02:06:00Z,28.4330,-82.6670,-0.343,1111122 
COMPS,ioos:station:USF.COMPS:ARP:1,2014-01-02T02:12:00Z,28.4330,-82.6670,-0.323,1111122 
COMPS,ioos:station:USF.COMPS:ARP:1,2014-01-02T02:18:00Z,28.4330,-82.6670,-0.301,1111122 
COMPS,ioos:station:USF.COMPS:ARP:1,2014-01-02T02:24:00Z,28.4330,-82.6670,-0.278,1111122 
COMPS,ioos:station:USF.COMPS:ARP:1,2014-01-02T02:30:00Z,28.4330,-82.6670,-0.252,1111122 
COMPS,ioos:station:USF.COMPS:ARP:1,2014-01-02T02:36:00Z,28.4330,-82.6670,-0.227,1111122 
COMPS,ioos:station:USF.COMPS:ARP:1,2014-01-02T02:42:00Z,28.4330,-82.6670,-0.199,1111122 
COMPS,ioos:station:USF.COMPS:ARP:1,2014-01-02T02:48:00Z,28.4330,-82.6670,-0.169,1111122 
COMPS,ioos:station:USF.COMPS:ARP:1,2014-01-02T02:54:00Z,28.4330,-82.6670,-0.138,1111122 